0 HST 1 20580U 90037B 25298.18540833 .00010258 00000-0 36633-3 0 9992 2 20580 28.4680 242.7474 0002153 56.7096 303.3705 15.27131570752567 0 ISS (ZARYA) 1 25544U 98067A 25298.16845503 .00018212 00000-0 33268-3 0 9997 2 25544 51.6349 22.9463 0004587 335.6556 24.4216 15.49445289535321 0 CXO 1 25867U 99040B 25299.01581391 .00000853 00000-0 00000+0 0 9990 2 25867 52.0858 124.3383 8218278 310.6210 0.1219 0.37802417 16430